Location: Rometta
(44.2000°N, 10.0500°E)
Time: 21:52:38
(UTC+00:00)

CZ-4B R/B - Pass Details

Date: 20 January 2021
Orbit: 387 x 458 km, 97.6° (Epoch: 04 March)

Event Time Altitude Azimuth Distance (km) Brightness Sun altitude
Exits shadow 18:05:38 - 358° (N) 2,224 4.9 -19.8°
Reaches altitude 10° 18:07:18 10° 347° (NNW) 1,588 4.2 -20.1°
Maximum altitude 18:10:06 24° 291° (WNW) 965 3.7 -20.6°
Drops below altitude 10° 18:12:44 11° 237° (WSW) 1,513 5.0 -21.1°
Sets 18:15:02 0° 222° (SW) 2,394 5.8 -21.5°
